Track PLEIADES 1B now! 10-day predictions PLEIADES 1B is classified as:
1 39019U 12068A 24326.18780252 .00000854 00000-0 19363-3 0 9991 2 39019 98.1823 38.4203 0001300 95.5111 264.6236 14.58545104637328